.
WxDataArchive / Data Records for 2010-08-27
2010-08-26 August 2010 2010-08-28

Data Records for Friday, 27 August 2010

Time	Temp	Chill	HIndex	Humid	Dewpt	 Wind 	HiWind	WindDir	Rain 	Barom 
-----	----	-----	------	-----	-----	------	------	-------	-----	----- 
00:00	56.9	56.9	56.9	81	51.1	0	0	---	0.00	30.158 
00:05	56.7	56.7	56.7	81	50.9	0	0	---	0.00	30.158 
00:10	56.6	56.6	56.6	81	50.8	0	0	---	0.00	30.158 
00:15	56.5	56.5	56.5	82	51.1	0	0	---	0.00	30.157 
00:20	56.3	56.3	56.3	82	50.9	0	0	---	0.00	30.157 
00:25	56.2	56.2	56.2	83	51.1	0	0	---	0.00	30.157 
00:30	56.0	56.0	56.0	83	50.9	0	0	---	0.00	30.161 
00:35	55.9	55.9	55.9	83	50.8	0	0	---	0.00	30.161 
00:40	55.7	55.7	55.7	83	50.6	0	0	---	0.00	30.161 
00:45	55.6	55.6	55.6	84	50.8	0	0	---	0.00	30.167 
00:50	55.4	55.4	55.4	84	50.6	0	0	---	0.00	30.167 
00:55	55.3	55.3	55.3	84	50.5	0	0	---	0.00	30.167 
01:00	55.1	55.1	55.1	84	50.4	0	0	---	0.00	30.169 
01:05	55.1	55.1	55.1	85	50.7	0	0	---	0.00	30.169 
01:10	55.0	55.0	55.0	85	50.6	0	0	---	0.00	30.169 
01:15	54.8	54.8	54.8	85	50.4	0	0	---	0.00	30.168 
01:20	54.7	54.7	54.7	85	50.3	0	0	---	0.00	30.168 
01:25	54.5	54.5	54.5	85	50.1	0	0	---	0.00	30.168 
01:30	54.4	54.4	54.4	86	50.3	0	0	---	0.00	30.168 
01:35	54.4	54.4	54.4	86	50.3	0	0	---	0.00	30.168 
01:40	54.2	54.2	54.2	86	50.1	0	0	---	0.00	30.168 
01:45	54.1	54.1	54.1	86	50.0	0	0	---	0.00	30.167 
01:50	53.9	53.9	53.9	87	50.1	0	0	---	0.00	30.167 
01:55	53.9	53.9	53.9	87	50.1	0	0	---	0.00	30.167 
02:00	53.8	53.8	53.8	88	50.3	0	0	---	0.00	30.168 
02:05	53.6	53.6	53.6	88	50.1	0	0	---	0.00	30.168 
02:10	53.5	53.5	53.5	88	50.0	0	0	---	0.00	30.168 
02:15	53.3	53.3	53.3	88	49.8	0	0	---	0.00	30.166 
02:20	53.3	53.3	53.3	89	50.1	0	0	---	0.00	30.166 
02:25	53.2	53.2	53.2	89	50.0	0	0	---	0.00	30.166 
02:30	53.1	53.1	53.1	89	49.9	0	0	---	0.00	30.166 
02:35	53.1	53.1	53.1	89	49.9	0	0	---	0.00	30.166 
02:40	52.9	52.9	52.9	89	49.7	0	0	---	0.00	30.166 
02:45	52.8	52.8	52.8	90	49.9	0	0	---	0.00	30.168 
02:50	52.8	52.8	52.8	90	49.9	0	0	---	0.00	30.168 
02:55	52.6	52.6	52.6	90	49.7	0	0	---	0.00	30.168 
03:00	52.6	52.6	52.6	90	49.7	0	0	---	0.00	30.165 
03:05	52.5	52.5	52.5	90	49.7	0	0	---	0.00	30.165 
03:10	52.5	52.5	52.5	90	49.7	0	0	---	0.00	30.165 
03:15	52.5	52.5	52.5	91	49.9	0	0	---	0.00	30.162 
03:20	52.3	52.3	52.3	91	49.8	0	0	---	0.00	30.162 
03:25	52.3	52.3	52.3	91	49.8	0	0	---	0.00	30.162 
03:30	52.2	52.2	52.2	91	49.7	0	0	---	0.00	30.163 
03:35	52.2	52.2	52.2	91	49.7	0	0	---	0.00	30.163 
03:40	52.2	52.2	52.2	92	49.9	0	0	---	0.00	30.163 
03:45	52.2	52.2	52.2	92	49.9	0	0	---	0.00	30.163 
03:50	52.0	52.0	52.0	92	49.7	0	0	---	0.00	30.163 
03:55	51.9	51.9	51.9	92	49.6	0	0	---	0.00	30.163 
04:00	51.9	51.9	51.9	92	49.6	0	0	---	0.00	30.159 
04:05	51.7	51.7	51.7	92	49.5	0	0	---	0.00	30.159 
04:10	51.7	51.7	51.7	92	49.5	0	0	---	0.00	30.159 
04:15	51.7	51.7	51.7	92	49.5	0	0	---	0.00	30.159 
04:20	51.6	51.6	51.6	92	49.4	0	0	---	0.00	30.159 
04:25	51.6	51.6	51.6	92	49.4	0	0	---	0.00	30.159 
04:30	51.4	51.4	51.4	92	49.2	0	0	---	0.00	30.161 
04:35	51.4	51.4	51.4	92	49.2	0	0	---	0.00	30.161 
04:40	51.3	51.3	51.3	92	49.1	0	0	---	0.00	30.161 
04:45	51.3	51.3	51.3	93	49.3	0	0	---	0.00	30.160 
04:50	51.1	51.1	51.1	93	49.1	0	0	---	0.00	30.160 
04:55	51.1	51.1	51.1	93	49.1	0	0	---	0.00	30.160 
05:00	51.1	51.1	51.1	93	49.1	0	0	---	0.00	30.161 
05:05	51.0	51.0	51.0	93	49.0	0	0	---	0.00	30.161 
05:10	51.0	51.0	51.0	93	49.0	0	0	---	0.00	30.161 
05:15	51.0	51.0	51.0	93	49.0	0	0	---	0.00	30.167 
05:20	50.8	50.8	50.8	93	48.8	0	0	---	0.00	30.167 
05:25	50.8	50.8	50.8	93	48.8	0	0	---	0.00	30.167 
05:30	50.8	50.8	50.8	93	48.8	0	0	---	0.00	30.168 
05:35	50.7	50.7	50.7	93	48.7	0	0	---	0.00	30.168 
05:40	50.7	50.7	50.7	93	48.7	0	0	---	0.00	30.168 
05:45	50.7	50.7	50.7	93	48.7	0	0	---	0.00	30.167 
05:50	50.7	50.7	50.7	94	49.0	0	0	---	0.00	30.167 
05:55	50.7	50.7	50.7	94	49.0	0	0	---	0.00	30.167 
06:00	50.5	50.5	50.5	94	48.8	0	0	---	0.00	30.165 
06:05	50.5	50.5	50.5	94	48.8	0	0	---	0.00	30.165 
06:10	50.5	50.5	50.5	94	48.8	0	0	---	0.00	30.165 
06:15	50.5	50.5	50.5	94	48.8	0	0	---	0.00	30.172 
06:20	50.4	50.4	50.4	94	48.7	0	0	---	0.00	30.172 
06:25	50.4	50.4	50.4	94	48.7	0	0	---	0.00	30.172 
06:30	50.2	50.2	50.2	94	48.5	0	0	---	0.00	30.175 
06:35	50.2	50.2	50.2	94	48.5	0	0	---	0.00	30.175 
06:40	50.2	50.2	50.2	94	48.5	0	0	---	0.00	30.175 
06:45	50.2	50.2	50.2	94	48.5	0	0	---	0.00	30.177 
06:50	50.2	50.2	50.2	94	48.5	0	0	---	0.00	30.177 
06:55	50.2	50.2	50.2	94	48.5	0	0	---	0.00	30.177 
07:00	50.1	50.1	50.1	94	48.4	0	0	---	0.00	30.181 
07:05	50.1	50.1	50.1	94	48.4	0	0	---	0.00	30.181 
07:10	50.1	50.1	50.1	94	48.4	0	0	---	0.00	30.181 
07:15	50.1	50.1	50.1	94	48.4	0	0	---	0.00	30.184 
07:20	50.1	50.1	50.1	94	48.4	0	0	---	0.00	30.184 
07:25	50.1	50.1	50.1	95	48.7	0	0	---	0.00	30.184 
07:30	50.1	50.1	50.1	95	48.7	0	0	---	0.00	30.191 
07:35	50.1	50.1	50.1	95	48.7	0	0	---	0.00	30.191 
07:40	50.2	50.2	50.2	95	48.8	0	0	---	0.00	30.191 
07:45	50.4	50.4	50.4	95	49.0	0	0	---	0.00	30.193 
07:50	50.7	50.7	50.7	95	49.3	0	0	---	0.00	30.193 
07:55	51.1	51.1	51.1	95	49.7	0	0	---	0.00	30.193 
08:00	51.9	51.9	51.9	96	50.8	0	0	---	0.00	30.192 
08:05	52.5	52.5	52.5	96	51.4	0	0	---	0.00	30.192 
08:10	53.3	53.3	53.3	96	52.2	0	0	---	0.00	30.192 
08:15	54.2	54.2	54.2	96	53.1	0	0	---	0.00	30.198 
08:20	55.0	55.0	55.0	96	53.9	0	0	---	0.00	30.198 
08:25	55.9	55.9	55.9	96	54.8	0	0	---	0.00	30.198 
08:30	56.7	56.7	56.7	95	55.3	0	0	---	0.00	30.204 
08:35	57.3	57.3	57.3	94	55.6	0	0	---	0.00	30.204 
08:40	58.1	58.1	58.1	94	56.4	0	0	---	0.00	30.204 
08:45	58.7	58.7	58.7	92	56.4	0	0	---	0.00	30.202 
08:50	59.5	59.5	59.5	88	55.9	0	0	---	0.00	30.202 
08:55	59.9	59.9	59.9	85	55.4	0	0	---	0.00	30.202 
09:00	60.5	60.5	60.5	83	55.3	0	0	---	0.00	30.199 
09:05	61.0	61.0	61.0	78	54.1	0	0	---	0.00	30.199 
09:10	61.5	61.5	61.5	76	53.9	0	1	135	0.00	30.199 
09:15	62.1	62.1	62.1	74	53.7	0	1	135	0.00	30.200 
09:20	62.6	62.6	62.6	73	53.8	0	1	135	0.00	30.200 
09:25	63.2	63.2	63.2	70	53.2	0	2	248	0.00	30.200 
09:30	63.7	63.7	63.7	66	52.1	0	2	248	0.00	30.199 
09:35	64.3	64.3	64.3	65	52.3	0	1	248	0.00	30.199 
09:40	65.0	65.0	65.0	65	52.9	0	1	248	0.00	30.199 
09:45	65.5	65.5	65.5	62	52.1	0	3	248	0.00	30.194 
09:50	66.1	66.1	66.1	63	53.1	0	2	248	0.00	30.194 
09:55	66.9	66.9	66.9	62	53.4	0	1	248	0.00	30.194 
10:00	67.4	67.4	67.4	58	52.1	0	2	248	0.00	30.197 
10:05	67.9	67.9	67.9	57	52.1	0	2	248	0.00	30.197 
10:10	68.8	68.8	68.8	56	52.5	0	1	248	0.00	30.197 
10:15	69.6	69.6	69.6	53	51.7	0	2	248	0.00	30.199 
10:20	70.6	70.6	70.6	51	51.6	0	2	248	0.00	30.199 
10:25	71.3	71.3	71.3	51	52.2	0	3	248	0.00	30.199 
10:30	71.8	71.8	71.8	48	51.0	1	3	90	0.00	30.200 
10:35	72.5	72.5	72.5	48	51.7	0	2	90	0.00	30.200 
10:40	73.2	73.2	73.2	47	51.7	0	1	90	0.00	30.200 
10:45	74.2	74.2	74.2	45	51.5	0	2	90	0.00	30.199 
10:50	74.6	74.6	74.6	45	51.8	0	1	90	0.00	30.199 
10:55	74.7	74.7	74.7	42	50.1	1	3	68	0.00	30.199 
11:00	74.9	74.9	74.9	42	50.2	1	2	68	0.00	30.198 
11:05	75.1	75.1	77.6	44	51.7	0	3	68	0.00	30.198 
11:10	75.1	75.1	77.6	44	51.7	0	2	270	0.00	30.198 
11:15	75.1	75.1	77.6	44	51.7	0	0	---	0.00	30.199 
11:20	74.9	74.9	74.9	42	50.2	0	0	---	0.00	30.199 
11:25	75.1	75.1	77.6	42	50.4	1	4	270	0.00	30.199 
11:30	74.7	74.7	74.7	41	49.4	1	4	292	0.00	30.199 
11:35	74.6	74.6	74.6	40	48.7	1	3	292	0.00	30.199 
11:40	74.4	74.4	74.4	40	48.5	0	1	292	0.00	30.199 
11:45	75.4	75.4	77.6	41	50.0	0	2	292	0.00	30.198 
11:50	76.5	76.5	77.9	38	49.0	0	0	---	0.00	30.198 
11:55	77.2	77.2	78.2	37	48.9	1	2	225	0.00	30.198 
12:00	77.6	77.6	78.4	37	49.2	1	2	225	0.00	30.196 
12:05	77.7	77.7	78.3	36	48.6	1	3	225	0.00	30.196 
12:10	77.7	77.7	78.5	38	50.0	1	2	112	0.00	30.196 
12:15	78.1	78.1	78.6	37	49.7	0	3	112	0.00	30.194 
12:20	78.3	78.3	78.6	36	49.1	0	2	0	0.00	30.194 
12:25	78.1	78.1	78.7	38	50.4	1	2	0	0.00	30.194 
12:30	78.3	78.3	78.7	37	49.9	1	2	0	0.00	30.193 
12:35	77.9	77.9	78.4	36	48.8	0	2	22	0.00	30.193 
12:40	78.3	78.3	78.6	36	49.1	1	2	22	0.00	30.193 
12:45	78.3	78.3	78.6	35	48.4	2	6	112	0.00	30.185 
12:50	78.1	78.1	78.7	38	50.4	1	3	112	0.00	30.185 
12:55	78.5	78.5	78.8	37	50.0	1	3	112	0.00	30.185 
13:00	78.6	78.6	78.7	35	48.6	1	3	112	0.00	30.180 
13:05	78.8	78.8	78.8	35	48.8	1	3	45	0.00	30.180 
13:10	79.2	79.2	79.1	35	49.2	1	3	45	0.00	30.180 
13:15	79.2	79.2	79.1	35	49.2	0	3	45	0.00	30.178 
13:20	79.0	79.0	79.0	35	49.0	1	4	90	0.00	30.178 
13:25	79.4	79.4	79.1	34	48.6	1	4	90	0.00	30.178 
13:30	79.4	79.4	79.1	34	48.6	1	4	90	0.00	30.176 
13:35	79.4	79.4	79.2	35	49.3	1	5	90	0.00	30.176 
13:40	79.8	79.8	79.3	34	48.9	0	3	90	0.00	30.176 
13:45	79.9	79.9	79.5	35	49.8	1	3	90	0.00	30.170 
13:50	79.8	79.8	79.4	35	49.7	0	3	68	0.00	30.170 
13:55	80.3	80.3	79.7	34	49.3	1	4	90	0.00	30.170 
14:00	80.5	80.5	79.9	36	51.1	1	4	135	0.00	30.166 
14:05	80.9	80.9	80.1	34	49.9	1	4	68	0.00	30.166 
14:10	81.1	81.1	80.2	34	50.0	1	4	90	0.00	30.166 
14:15	81.2	81.2	80.2	33	49.3	1	3	68	0.00	30.165 
14:20	81.2	81.2	80.3	34	50.1	1	4	68	0.00	30.165 
14:25	81.4	81.4	80.3	33	49.5	1	4	68	0.00	30.165 
14:30	81.6	81.6	80.5	34	50.5	1	4	90	0.00	30.157 
14:35	81.4	81.4	80.4	34	50.3	1	4	90	0.00	30.157 
14:40	81.6	81.6	80.2	30	47.1	1	4	112	0.00	30.157 
14:45	81.4	81.4	80.3	33	49.5	1	5	90	0.00	30.152 
14:50	81.4	81.4	80.1	31	47.8	2	4	90	0.00	30.152 
14:55	81.6	81.6	80.3	31	48.0	1	3	270	0.00	30.152 
15:00	81.8	81.8	80.4	31	48.2	0	2	270	0.00	30.148 
15:05	81.8	81.8	80.4	31	48.2	1	3	248	0.00	30.148 
15:10	81.8	81.8	80.3	30	47.3	1	3	68	0.00	30.148 
15:15	82.2	82.2	80.5	29	46.8	1	4	135	0.00	30.143 
15:20	82.6	82.6	80.8	29	47.1	0	2	270	0.00	30.143 
15:25	83.2	83.2	81.4	30	48.5	0	2	270	0.00	30.143 
15:30	83.6	83.6	81.6	29	48.0	1	3	45	0.00	30.135 
15:35	83.6	83.6	81.5	28	47.0	0	1	45	0.00	30.135 
15:40	84.0	84.0	81.9	29	48.3	0	2	45	0.00	30.135 
15:45	83.8	83.8	81.7	29	48.1	1	4	112	0.00	30.130 
15:50	83.2	83.2	81.4	30	48.5	1	4	112	0.00	30.130 
15:55	83.0	83.0	81.3	31	49.2	1	4	90	0.00	30.130 
16:00	82.6	82.6	81.0	31	48.9	2	6	90	0.00	30.124 
16:05	82.2	82.2	80.7	31	48.5	2	5	90	0.00	30.124 
16:10	82.4	82.4	80.8	30	47.8	1	2	90	0.00	30.124 
16:15	82.6	82.6	80.9	30	48.0	1	3	90	0.00	30.123 
16:20	82.6	82.6	81.0	31	48.9	1	5	90	0.00	30.123 
16:25	82.4	82.4	80.9	31	48.7	2	5	90	0.00	30.123 
16:30	82.2	82.2	80.8	32	49.4	1	4	112	0.00	30.120 
16:35	82.4	82.4	80.9	32	49.5	1	2	90	0.00	30.120 
16:40	82.6	82.6	81.0	31	48.9	1	4	90	0.00	30.120 
16:45	82.4	82.4	80.8	30	47.8	2	4	90	0.00	30.120 
16:50	82.4	82.4	80.9	31	48.7	1	3	112	0.00	30.120 
16:55	82.6	82.6	81.1	32	49.7	1	3	112	0.00	30.120 
17:00	82.6	82.6	81.0	31	48.9	1	4	112	0.00	30.116 
17:05	82.4	82.4	80.9	31	48.7	1	4	112	0.00	30.116 
17:10	81.8	81.8	80.5	32	49.0	2	5	90	0.00	30.116 
17:15	81.4	81.4	80.1	31	47.8	1	6	90	0.00	30.113 
17:20	81.6	81.6	80.3	31	48.0	1	3	90	0.00	30.113 
17:25	81.6	81.6	80.4	32	48.9	1	5	90	0.00	30.113 
17:30	81.6	81.6	80.5	33	49.7	1	3	90	0.00	30.116 
17:35	81.2	81.2	80.2	33	49.3	1	5	90	0.00	30.116 
17:40	81.1	81.1	80.2	34	50.0	1	6	90	0.00	30.116 
17:45	80.9	80.9	80.1	34	49.9	1	4	112	0.00	30.113 
17:50	80.9	80.9	80.1	34	49.9	1	3	90	0.00	30.113 
17:55	80.9	80.9	80.1	34	49.9	1	3	90	0.00	30.113 
18:00	80.7	80.7	80.0	35	50.5	2	6	90	0.00	30.113 
18:05	80.5	80.5	79.9	35	50.3	1	3	112	0.00	30.113 
18:10	80.5	80.5	79.8	34	49.5	1	3	90	0.00	30.113 
18:15	80.3	80.3	79.7	35	50.1	1	6	135	0.00	30.113 
18:20	80.1	80.1	79.6	35	50.0	1	3	90	0.00	30.113 
18:25	79.9	79.9	79.6	36	50.5	1	3	90	0.00	30.113 
18:30	79.9	79.9	79.6	36	50.5	0	1	90	0.00	30.110 
18:35	79.8	79.8	79.5	36	50.4	0	3	202	0.00	30.110 
18:40	79.6	79.6	79.4	37	51.0	0	2	292	0.00	30.110 
18:45	79.4	79.4	79.2	36	50.1	0	2	292	0.00	30.111 
18:50	79.2	79.2	79.1	36	49.9	0	1	292	0.00	30.111 
18:55	79.0	79.0	79.1	37	50.5	0	2	292	0.00	30.111 
19:00	78.8	78.8	79.0	38	51.0	0	1	292	0.00	30.110 
19:05	78.6	78.6	79.0	39	51.5	0	1	292	0.00	30.110 
19:10	78.5	78.5	78.9	38	50.8	0	2	292	0.00	30.110 
19:15	78.3	78.3	78.8	39	51.3	0	1	292	0.00	30.108 
19:20	78.1	78.1	78.7	39	51.1	0	0	---	0.00	30.108 
19:25	77.7	77.7	78.5	39	50.7	0	1	292	0.00	30.108 
19:30	77.6	77.6	78.5	40	51.3	0	1	292	0.00	30.109 
19:35	77.2	77.2	78.3	40	51.0	0	1	292	0.00	30.109 
19:40	77.0	77.0	78.3	41	51.5	0	1	292	0.00	30.109 
19:45	76.8	76.8	78.2	42	51.9	0	1	292	0.00	30.109 
19:50	76.5	76.5	78.1	42	51.7	0	1	292	0.00	30.109 
19:55	76.3	76.3	78.0	42	51.5	0	0	---	0.00	30.109 
20:00	76.0	76.0	77.9	43	51.9	0	1	292	0.00	30.110 
20:05	75.6	75.6	77.8	43	51.5	0	1	292	0.00	30.110 
20:10	75.3	75.3	77.7	44	51.9	0	0	---	0.00	30.110 
20:15	74.9	74.9	74.9	45	52.1	0	0	---	0.00	30.108 
20:20	74.6	74.6	74.6	45	51.8	0	0	---	0.00	30.108 
20:25	74.2	74.2	74.2	46	52.1	0	0	---	0.00	30.108 
20:30	73.7	73.7	73.7	47	52.2	0	0	---	0.00	30.111 
20:35	73.2	73.2	73.2	47	51.7	0	0	---	0.00	30.111 
20:40	72.7	72.7	72.7	49	52.4	0	0	---	0.00	30.111 
20:45	72.3	72.3	72.3	50	52.6	0	0	---	0.00	30.117 
20:50	71.8	71.8	71.8	51	52.7	0	0	---	0.00	30.117 
20:55	71.5	71.5	71.5	52	52.9	0	0	---	0.00	30.117 
21:00	70.9	70.9	70.9	53	52.9	0	0	---	0.00	30.119 
21:05	70.6	70.6	70.6	54	53.1	0	0	---	0.00	30.119 
21:10	70.3	70.3	70.3	54	52.9	0	0	---	0.00	30.119 
21:15	69.9	69.9	69.9	55	53.0	0	0	---	0.00	30.116 
21:20	69.6	69.6	69.6	56	53.2	0	0	---	0.00	30.116 
21:25	69.4	69.4	69.4	57	53.5	0	0	---	0.00	30.116 
21:30	69.1	69.1	69.1	58	53.7	0	0	---	0.00	30.118 
21:35	68.8	68.8	68.8	58	53.4	0	0	---	0.00	30.118 
21:40	68.4	68.4	68.4	60	54.0	0	0	---	0.00	30.118 
21:45	68.1	68.1	68.1	60	53.7	0	0	---	0.00	30.120 
21:50	67.8	67.8	67.8	61	53.9	0	0	---	0.00	30.120 
21:55	67.3	67.3	67.3	62	53.8	0	0	---	0.00	30.120 
22:00	67.1	67.1	67.1	63	54.1	0	0	---	0.00	30.127 
22:05	66.6	66.6	66.6	64	54.0	0	0	---	0.00	30.127 
22:10	66.3	66.3	66.3	65	54.2	0	0	---	0.00	30.127 
22:15	66.0	66.0	66.0	65	53.9	0	0	---	0.00	30.127 
22:20	65.6	65.6	65.6	66	53.9	0	0	---	0.00	30.127 
22:25	65.3	65.3	65.3	67	54.1	0	0	---	0.00	30.127 
22:30	65.0	65.0	65.0	68	54.2	0	0	---	0.00	30.126 
22:35	64.7	64.7	64.7	69	54.3	0	0	---	0.00	30.126 
22:40	64.5	64.5	64.5	69	54.1	0	0	---	0.00	30.126 
22:45	64.2	64.2	64.2	69	53.8	0	0	---	0.00	30.129 
22:50	64.0	64.0	64.0	71	54.4	0	0	---	0.00	30.129 
22:55	63.7	63.7	63.7	72	54.5	0	0	---	0.00	30.129 
23:00	63.5	63.5	63.5	73	54.7	0	0	---	0.00	30.131 
23:05	63.2	63.2	63.2	73	54.4	0	0	---	0.00	30.131 
23:10	63.1	63.1	63.1	74	54.7	0	0	---	0.00	30.131 
23:15	62.7	62.7	62.7	75	54.7	0	0	---	0.00	30.131 
23:20	62.6	62.6	62.6	76	54.9	0	0	---	0.00	30.131 
23:25	62.4	62.4	62.4	76	54.7	0	0	---	0.00	30.131 
23:30	62.3	62.3	62.3	77	55.0	0	0	---	0.00	30.130 
23:35	62.1	62.1	62.1	77	54.8	0	0	---	0.00	30.130 
23:40	62.0	62.0	62.0	78	55.1	0	0	---	0.00	30.130 
23:45	62.0	62.0	62.0	79	55.4	0	0	---	0.00	30.131 
23:50	61.6	61.6	61.6	79	55.0	0	0	---	0.00	30.131 
23:55	61.5	61.5	61.5	79	54.9	0	0	---	0.00	30.131 

CoCoRaHS
IN-AL-39
A2 Web Hosting
Creative Commons License
GoDaddy
search engine by freefind advanced

loaded 2018-11-17 19:13:55 • last modified 2010-11-18 10:43:29
Privacy PolicyDisclaimer
• wx.awcolley.com is powered by PmWiki v.2002016 •
• all content (unless otherwise noted) © 2018 A W Colley